Погода в Каменной Балке

Россия / Ставропольский край     45°32′50″N   43°58′42″E
темп.,
°C
ветер,
м/с
пор.,
м/с
влажн.,
%
обл.,
%
осадки,
мм/ч
давл.,
гПа
погр.,
м
8 мая, сб
сб800:00+14з33645 0.0 101822
03:00+12зюз22748 0.0 101810
06:00+15ю11685 0.0 101720
09:00+20юв334751 0.0 1017790
12:00+23юв4538100 0.0 10151728
15:00+25ююв5635100 0.0 10132128
18:00+21ююв474899 0.0 1013161
21:00+17юв6125180 0.0 1013329
9 мая, вс
вс900:00+13вюв5115612 0.0 1011211
03:00+11юв41163100 0.0 1010251
06:00+12ююв3775100 0.0 1009280
09:00+16юв2266100 0.0 1008419
12:00+21сз6750100 0.0 10081327
15:00+17зсз91072100 0.6 10101009
18:00+8зсз131889100 1.9 1014781
21:00+7зсз111688100 5.6 10181000
10 мая, пн
пн1000:00+8зсз91385100 0.2 10191083
03:00+7зсз91482100 0.2 1019885
06:00+7зсз8147895 0.0 1020992
09:00+11зсз10136015 0.0 10191578
12:00+14з101243100 0.1 10182402
15:00+13зсз10114496 0.1 10172148
18:00+12зсз710605 0.0 10181359
21:00+7юз497719 0.0 1019264
11 мая, вт
вт1100:00+6ююз5108695 0.0 1019376
03:00+6ю488279 0.0 1020217
06:00+7ююз367925 0.0 1020247
09:00+12ююв4656100 0.0 1020760
12:00+14юв794662 0.0 10191761
15:00+16вюв784187 0.0 10192134
18:00+15вюв575387 0.0 1020736
21:00+11в34635 0.0 102056
12 мая, ср
ср1200:00+10юв34725 0.0 101957
03:00+9юв33785 0.0 101928
06:00+10юв35735 0.0 1019135
09:00+16вюв68535 0.0 10191105
12:00+19вюв67400 0.0 10181605
15:00+21вюв56360 0.0 10171860
18:00+20в354311 0.0 1016200
21:00+15в33490 0.0 101628